ATLAS 5 CENTAUR DEB, 46637

Orbit data source: Space-Track

ATLAS 5 CENTAUR DEB, 46637 is space debris in HEO originally from a launch on Wed, 17 Sep 2014 UTC launched from the Air Force Eastern Test Range (AFETR). Debris objects in space refer to the collection of defunct objects orbiting the Earth. Examples of debris include non-operational satellites, rocket bodies, and fragments generated from explosions, collisions, or faulty payload assembly.

Loading next visibility...
Identifier
46637, 2014-055CM
Orbit
HEO
Country
Flag of USUS
Related business
Flag of USUnited Launch Alliance/Lockheed Martin (US)
Manufacturer
Unknown
Mission
Spacecraft
Bus & Motor
Unknown
Mass
Unknown
Launch date (UTC)
2014-09-17 (11 years ago)
Launch vehicle
Unknown
Launch site
Air Force Eastern Test Range (AFETR)
Object type
Payload
Rocket body
Debris
Shape & HBR
Unknown shape, 1.1 m
Radar Cross Section
Small (<0.1 m²)

Expand to show TLE details & history
Last TLE update: 17 hours ago

TLE from 17 hours ago
0 ATLAS 5 CENTAUR DEB
1 46637U 14055CM  26073.48335585 -.00000238  00000-0  00000-0 0  9994
2 46637  21.1369  97.0303 5082227 249.2513  50.5753  1.94676910 38632
Epoch: 2026-03-14T11:36Z
TLE epoch observation values (Epoch: 2026-03-14T11:36:01.945Z)
Latitude
-0.00002°
Longitude
111.0005°
Altitude
18,123.97 km
Speed
4.222 km/s
True Right ascension
06h 28m 26s
True Declination
0° 00' 00"
Sunlit
Object was in daylight at epoch
Visualization orbit readout
Latitude
Unknown
Longitude
Unknown
Altitude
Unknown
Speed
Unknown
Apparent Right ascension
Unknown
Apparent Declination
Unknown
Sunlit
N/A
Visualization observer readout
Local Sidereal Time
09:09:56
Azimuth
Unknown
Elevation
Unknown
Doppler factor
Unknown
Orbital elements
Apogee altitude
34,487.423 km
Perigee altitude
6,946.656 km
Semi-major axis
27,095.176 km
Eccentricity
0.50822
Inclination
21.1369°
RAAN
97.0303°
Arg. of periapsis
249.2513°
True anomaly
110.74705°
Mean anomaly
50.5753°
Eccentric anomaly
79.17628°
Mean motion
0.48664 °/min
Orbital period
739.77 mins
BSTAR
0
Loading maneuver chart data...
Computing Atmospheric mass density...

Documentation

Showing up to 5 results
|